Location: Aubervilles
(48.9167°N, 2.3833°E)
Time: 21:53:36
(UTC+00:00)

Cosmos 1606 - Pass Details

Date: 03 February 2023
Orbit: 488 x 510 km, 82.5° (Epoch: 21 March)

Event Time Altitude Azimuth Distance (km) Brightness Sun altitude
Rises 18:35:36 0° 357° (N) 2,651 6.3 -17.4°
Reaches altitude 10° 18:37:53 10° 6° (N) 1,760 5.3 -17.8°
Enters shadow 18:39:45 23° 26° (NNE) 1,129 4.1 -18.1°
